Simultaneous Nadir Overpasses (SNOs) Predictions

Prediction of SNOs between LANDSAT-8 and NOAA-19 Satellite Orbit:

Table of predicted SNOs for the next 14.0 days since TLE Epoch: 1/9/2021
Index Date (LANDSAT-8) Time (LANDSAT-8) Lat,Lon (LANDSAT-8) SZA (LANDSAT-8 ) Date (NOAA-19) Time (NOAA-19) Lat,Lon (NOAA-19) SZA (NOAA-19 ) Distance(km) Time Diff (sec)
1 01/10/2021 08:27:49 -80.16, -98.00 76.97 01/10/2021 08:27:05 -80.16, -97.93 76.99 1.36 44
2 01/10/2021 09:17:16 80.13, 69.36 102.98 01/10/2021 09:18:09 80.14, 69.52 103.02 3.23 53
3 01/12/2021 14:01:31 80.18, -1.27 102.69 01/12/2021 14:00:23 80.17, -1.27 102.65 1.69 68
4 01/12/2021 14:50:59 -80.15, 166.07 77.37 01/12/2021 14:51:18 -80.16, 166.15 77.36 1.67 19
5 01/14/2021 20:24:41 80.16, -97.23 102.25 01/14/2021 20:24:36 80.16, -97.11 102.25 2.41 5
6 01/17/2021 01:58:24 -80.18, -0.53 78.17 01/17/2021 01:57:45 -80.18, -0.67 78.19 2.80 39
7 01/17/2021 02:47:50 80.18, 167.09 101.82 01/17/2021 02:48:49 80.15, 167.03 101.81 2.98 59
8 01/19/2021 07:32:06 80.18, 96.11 101.38 01/19/2021 07:31:03 80.18, 96.17 101.35 1.45 63
9 01/19/2021 08:21:34 -80.16, -96.51 78.68 01/19/2021 08:21:58 -80.18, -96.61 78.66 3.30 24



Historial Predications of SNOs between LANDSAT-8 and NOAA-19
